Overview Statistics Trail Chart Weather Telemetry Raw packets
 

This is the latest recevied weather packets stored in our database for station/object KM8V-8. If no packets are shown the sender has not sent any weather packets the latest 10 day(s).

<< 42 43 44 45 46 47 48 >>
Time Temp. Humidity Pressure Rain* Wind** Luminosity Snow
1777476331 11.11° C 100% 1009.7 hPa 0 mm - 108 W/m² -
1777476031 10.56° C 100% 1009.6 hPa 0.25 mm - 185 W/m² -
1777475731 10.56° C 100% 1009.6 hPa 0.25 mm - 183 W/m² -
1777475419 10.56° C 100% 1009.5 hPa 0.25 mm - 248 W/m² -
1777475131 10.56° C 100% 1009.6 hPa 0.51 mm - 288 W/m² -
1777474832 10.56° C 100% 1009.7 hPa 0.76 mm - 259 W/m² -
1777474531 10.56° C 99% 1009.9 hPa 0.76 mm - 275 W/m² -
1777474231 11.11° C 100% 1009.9 hPa 0.76 mm - 244 W/m² -
1777473931 11.11° C 100% 1010 hPa 0.76 mm - 195 W/m² -
1777473632 11.11° C 99% 1010.1 hPa 0.76 mm - 201 W/m² -
1777473320 11.11° C 99% 1010.2 hPa 0.76 mm - 111 W/m² -
1777473018 11.11° C 99% 1010.2 hPa 0.51 mm - 172 W/m² -
1777472732 11.11° C 99% 1010.3 hPa 0.51 mm - 148 W/m² -
1777472431 11.11° C 99% 1010.4 hPa 0.76 mm - 94 W/m² -
1777472132 11.11° C 99% 1010.5 hPa 0.76 mm - 67 W/m² -
1777471818 11.11° C 99% 1010.5 hPa 0.76 mm - 72 W/m² -
1777471517 11.11° C 99% 1010.6 hPa 0.51 mm - 65 W/m² -
1777471217 11.11° C 99% 1010.5 hPa 0.51 mm - 48 W/m² -
1777470917 11.11° C 99% 1010.2 hPa 0.76 mm - 82 W/m² -
1777470617 11.11° C 99% 1010.3 hPa 0.76 mm - 80 W/m² -
1777470318 11.11° C 99% 1010.3 hPa 1.02 mm - 86 W/m² -
1777470017 11.11° C 99% 1010.2 hPa 1.27 mm - 90 W/m² -
1777469732 11.67° C 99% 1010.2 hPa 1.52 mm - 98 W/m² -
1777469433 11.67° C 99% 1010.2 hPa 1.78 mm - 85 W/m² -
1777469133 11.67° C 99% 1010.3 hPa 2.03 mm - 53 W/m² -

* Rain latest hour (hover to see other rain measurements)
** Current wind speed in m/s (hover to see current wind gust speed)